Total_Precipitation_Accumulation
0.01 0.05 0.05 0.13 0.17 0.17 0.33 0.23 0.25 0.25 0.19 0.17 0.24 0.31 0.31 0.26 0.36 0.28 0.28 0.20 0.19 0.23 0.23 0.17 0.12 0.08 0.08 0.04 0.05 0.05 0.03 0.05 0.05 0.07 0.07 0.03 0.01 0.00 0.00 0.00 0.05 0.15 0.15 0.22 0.22 0.22 0.18 0.20 0.22 0.22 0.13 0.09 0.04 0.00 0.00 0.00 0.00 0.00 0.00 0.00 0.00 0.00 0.00 0.00 0.00 0.00 0.00 0.00 0.00
0.03 0.05 0.05 0.14 0.21 0.21 0.35 0.26 0.30 0.30 0.24 0.19 0.26 0.33 0.33 0.30 0.33 0.27 0.27 0.19 0.16 0.17 0.17 0.17 0.13 0.10 0.10 0.05 0.05 0.05 0.06 0.07 0.06 0.07 0.07 0.05 0.01 0.01 0.01 0.00 0.04 0.16 0.16 0.22 0.21 0.21 0.16 0.12 0.12 0.12 0.11 0.08 0.04 0.01 0.01 0.00 0.00 0.00 0.00 0.00 0.00 0.00 0.00 0.00 0.00 0.00 0.00 0.00 0.00
0.04 0.06 0.06 0.17 0.27 0.27 0.40 0.30 0.33 0.33 0.27 0.23 0.27 0.36 0.36 0.35 0.32 0.26 0.26 0.19 0.14 0.14 0.14 0.18 0.13 0.10 0.10 0.06 0.05 0.05 0.08 0.07 0.05 0.07 0.07 0.04 0.02 0.01 0.01 0.01 0.04 0.15 0.15 0.24 0.22 0.22 0.15 0.10 0.10 0.10 0.10 0.07 0.03 0.00 0.00 0.00 0.00 0.00 0.00 0.00 0.00 0.00 0.00 0.00 0.00 0.00 0.00 0.00 0.00
0.04 0.06 0.06 0.20 0.34 0.34 0.41 0.30 0.33 0.33 0.28 0.25 0.31 0.39 0.39 0.37 0.31 0.26 0.26 0.17 0.14 0.18 0.18 0.17 0.13 0.10 0.10 0.07 0.04 0.04 0.09 0.08 0.07 0.05 0.05 0.06 0.03 0.01 0.01 0.02 0.04 0.09 0.09 0.25 0.23 0.23 0.14 0.11 0.10 0.10 0.08 0.06 0.01 0.00 0.00 0.00 0.00 0.00 0.00 0.00 0.00 0.00 0.00 0.00 0.00 0.00 0.00 0.00 0.00
0.06 0.07 0.07 0.23 0.42 0.42 0.42 0.29 0.31 0.31 0.30 0.29 0.38 0.45 0.45 0.41 0.33 0.26 0.26 0.17 0.17 0.21 0.21 0.16 0.12 0.11 0.11 0.06 0.04 0.04 0.09 0.11 0.12 0.08 0.08 0.06 0.05 0.04 0.04 0.04 0.05 0.09 0.09 0.24 0.22 0.22 0.17 0.13 0.11 0.11 0.07 0.04 0.01 0.00 0.00 0.00 0.00 0.00 0.00 0.00 0.00 0.00 0.00 0.00 0.00 0.00 0.00 0.00 0.00
0.07 0.08 0.08 0.26 0.50 0.50 0.42 0.31 0.32 0.32 0.31 0.32 0.40 0.48 0.48 0.46 0.34 0.27 0.27 0.20 0.18 0.21 0.21 0.19 0.14 0.12 0.12 0.07 0.05 0.05 0.10 0.13 0.13 0.08 0.08 0.07 0.07 0.06 0.06 0.09 0.11 0.11 0.11 0.15 0.23 0.23 0.21 0.15 0.11 0.11 0.09 0.02 0.00 0.00 0.00 0.00 0.00 0.00 0.00 0.00 0.00 0.00 0.00 0.00 0.00 0.00 0.00 0.00 0.00
0.06 0.08 0.08 0.32 0.59 0.59 0.43 0.36 0.35 0.35 0.31 0.33 0.38 0.46 0.46 0.45 0.32 0.26 0.26 0.19 0.17 0.24 0.24 0.27 0.25 0.14 0.14 0.07 0.04 0.04 0.07 0.13 0.14 0.09 0.09 0.08 0.11 0.09 0.09 0.10 0.13 0.14 0.14 0.13 0.21 0.21 0.20 0.16 0.11 0.11 0.07 0.00 0.00 0.00 0.00 0.00 0.00 0.00 0.00 0.00 0.00 0.00 0.00 0.00 0.00 0.00 0.00 0.00 0.00
0.06 0.08 0.08 0.38 0.66 0.66 0.44 0.36 0.39 0.39 0.32 0.32 0.39 0.42 0.42 0.39 0.30 0.25 0.25 0.19 0.20 0.21 0.21 0.31 0.27 0.12 0.12 0.07 0.04 0.04 0.07 0.14 0.12 0.12 0.12 0.10 0.15 0.08 0.08 0.11 0.14 0.14 0.14 0.10 0.21 0.21 0.19 0.16 0.10 0.10 0.05 0.02 0.00 0.00 0.00 0.00 0.00 0.00 0.00 0.00 0.00 0.00 0.00 0.00 0.00 0.00 0.00 0.00 0.00
0.11 0.16 0.16 0.50 0.73 0.73 0.47 0.36 0.37 0.37 0.34 0.32 0.40 0.39 0.39 0.34 0.27 0.26 0.26 0.26 0.21 0.22 0.22 0.31 0.31 0.15 0.15 0.09 0.06 0.06 0.08 0.12 0.11 0.10 0.10 0.11 0.17 0.10 0.10 0.12 0.16 0.12 0.12 0.10 0.09 0.09 0.17 0.16 0.09 0.09 0.03 0.00 0.00 0.00 0.00 0.00 0.00 0.00 0.00 0.00 0.00 0.00 0.00 0.00 0.00 0.00 0.00 0.00 0.00
0.14 0.24 0.24 0.68 0.83 0.83 0.49 0.34 0.36 0.36 0.31 0.31 0.41 0.36 0.36 0.31 0.21 0.21 0.21 0.20 0.22 0.28 0.28 0.36 0.33 0.20 0.20 0.09 0.09 0.09 0.11 0.10 0.09 0.09 0.09 0.13 0.14 0.14 0.14 0.12 0.14 0.11 0.11 0.10 0.08 0.08 0.16 0.15 0.07 0.07 0.01 0.00 0.00 0.00 0.00 0.00 0.00 0.00 0.00 0.00 0.00 0.00 0.00 0.00 0.00 0.00 0.00 0.00 0.00
0.19 0.52 0.52 0.74 0.83 0.83 0.50 0.35 0.36 0.36 0.29 0.33 0.42 0.33 0.33 0.27 0.21 0.20 0.20 0.23 0.29 0.33 0.33 0.36 0.32 0.24 0.24 0.11 0.08 0.08 0.10 0.10 0.11 0.12 0.12 0.15 0.13 0.11 0.11 0.12 0.13 0.10 0.10 0.07 0.07 0.07 0.10 0.14 0.05 0.05 0.01 0.00 0.00 0.00 0.00 0.00 0.00 0.00 0.00 0.00 0.00 0.00 0.00 0.00 0.00 0.00 0.00 0.00 0.00
0.25 0.58 0.58 0.79 0.86 0.86 0.52 0.36 0.35 0.35 0.31 0.35 0.41 0.31 0.31 0.27 0.23 0.21 0.21 0.26 0.31 0.33 0.33 0.35 0.34 0.28 0.28 0.13 0.08 0.08 0.12 0.14 0.14 0.15 0.15 0.17 0.14 0.10 0.10 0.09 0.11 0.09 0.09 0.08 0.07 0.07 0.09 0.12 0.05 0.05 0.01 0.00 0.00 0.00 0.00 0.00 0.00 0.00 0.00 0.00 0.00 0.00 0.00 0.00 0.00 0.00 0.00 0.00 0.00
0.31 0.66 0.66 0.86 0.86 0.86 0.53 0.35 0.33 0.33 0.32 0.38 0.38 0.31 0.31 0.29 0.22 0.22 0.22 0.27 0.29 0.35 0.35 0.38 0.35 0.30 0.30 0.18 0.11 0.11 0.15 0.18 0.19 0.21 0.21 0.18 0.12 0.08 0.08 0.10 0.11 0.10 0.10 0.10 0.11 0.11 0.09 0.10 0.03 0.03 0.00 0.00 0.00 0.00 0.00 0.00 0.00 0.00 0.00 0.00 0.00 0.00 0.00 0.00 0.00 0.00 0.00 0.00 0.00
0.39 0.73 0.73 0.91 0.86 0.86 0.50 0.33 0.31 0.31 0.32 0.38 0.35 0.31 0.31 0.29 0.24 0.21 0.21 0.26 0.31 0.35 0.35 0.38 0.39 0.37 0.37 0.22 0.15 0.15 0.19 0.22 0.26 0.22 0.22 0.17 0.10 0.08 0.08 0.10 0.08 0.10 0.10 0.12 0.11 0.11 0.08 0.06 0.04 0.04 0.00 0.00 0.00 0.00 0.00 0.00 0.00 0.00 0.00 0.00 0.00 0.00 0.00 0.00 0.00 0.00 0.00 0.00 0.00
0.47 0.77 0.77 0.95 0.85 0.85 0.46 0.30 0.30 0.30 0.33 0.39 0.32 0.30 0.30 0.30 0.26 0.26 0.26 0.27 0.32 0.31 0.31 0.36 0.43 0.41 0.41 0.35 0.20 0.20 0.23 0.28 0.31 0.25 0.25 0.14 0.09 0.10 0.10 0.09 0.07 0.10 0.10 0.12 0.09 0.09 0.07 0.04 0.02 0.02 0.00 0.00 0.00 0.00 0.00 0.00 0.00 0.00 0.00 0.00 0.00 0.00 0.00 0.00 0.00 0.00 0.00 0.00 0.00
0.54 0.80 0.80 0.99 0.82 0.82 0.40 0.27 0.29 0.29 0.32 0.37 0.30 0.29 0.29 0.33 0.30 0.29 0.29 0.32 0.32 0.32 0.32 0.36 0.41 0.47 0.47 0.47 0.32 0.32 0.32 0.35 0.36 0.19 0.19 0.13 0.12 0.12 0.12 0.11 0.10 0.12 0.12 0.10 0.07 0.07 0.05 0.02 0.00 0.00 0.00 0.00 0.00 0.00 0.00 0.00 0.00 0.00 0.00 0.00 0.00 0.00 0.00 0.00 0.00 0.00 0.00 0.00 0.00
0.54 0.84 0.84 0.97 0.73 0.73 0.34 0.25 0.27 0.27 0.31 0.33 0.29 0.30 0.30 0.34 0.33 0.37 0.37 0.35 0.35 0.35 0.35 0.35 0.36 0.48 0.48 0.53 0.44 0.44 0.37 0.39 0.36 0.27 0.27 0.13 0.14 0.13 0.13 0.14 0.13 0.13 0.13 0.07 0.05 0.05 0.02 0.00 0.00 0.00 0.00 0.00 0.00 0.00 0.00 0.00 0.00 0.00 0.00 0.00 0.00 0.00 0.00 0.00 0.00 0.00 0.00 0.00 0.00
0.67 0.87 0.87 0.87 0.57 0.57 0.26 0.22 0.24 0.24 0.26 0.29 0.31 0.33 0.33 0.37 0.37 0.43 0.43 0.37 0.29 0.32 0.32 0.34 0.36 0.40 0.40 0.56 0.62 0.62 0.45 0.35 0.30 0.22 0.22 0.22 0.22 0.21 0.21 0.20 0.17 0.13 0.13 0.10 0.02 0.02 0.00 0.00 0.00 0.00 0.00 0.00 0.00 0.00 0.00 0.00 0.00 0.00 0.00 0.00 0.00 0.00 0.00 0.00 0.00 0.00 0.00 0.00 0.00
0.61 0.82 0.82 0.81 0.49 0.49 0.24 0.22 0.22 0.22 0.24 0.29 0.32 0.38 0.38 0.43 0.38 0.43 0.43 0.43 0.33 0.32 0.32 0.36 0.38 0.43 0.43 0.53 0.60 0.60 0.48 0.36 0.30 0.26 0.26 0.23 0.29 0.21 0.21 0.17 0.15 0.13 0.13 0.10 0.05 0.05 0.00 0.00 0.00 0.00 0.00 0.00 0.00 0.00 0.00 0.00 0.00 0.00 0.00 0.00 0.00 0.00 0.00 0.00 0.00 0.00 0.00 0.00 0.00
0.57 0.78 0.78 0.74 0.41 0.41 0.24 0.24 0.21 0.21 0.24 0.34 0.37 0.46 0.46 0.44 0.40 0.40 0.40 0.40 0.36 0.40 0.40 0.41 0.38 0.43 0.43 0.53 0.65 0.65 0.56 0.39 0.33 0.31 0.31 0.49 0.38 0.24 0.24 0.16 0.14 0.10 0.10 0.05 0.02 0.02 0.00 0.00 0.00 0.00 0.00 0.00 0.00 0.00 0.00 0.00 0.00 0.00 0.00 0.00 0.00 0.00 0.00 0.00 0.00 0.00 0.00 0.00 0.00
0.53 0.74 0.74 0.69 0.37 0.37 0.27 0.27 0.24 0.24 0.30 0.41 0.43 0.50 0.50 0.43 0.41 0.40 0.40 0.36 0.39 0.44 0.44 0.47 0.45 0.41 0.41 0.46 0.70 0.70 0.63 0.46 0.40 0.44 0.44 0.65 0.62 0.25 0.25 0.17 0.12 0.07 0.07 0.02 0.00 0.00 0.00 0.00 0.00 0.00 0.00 0.00 0.00 0.00 0.00 0.00 0.00 0.00 0.00 0.00 0.00 0.00 0.00 0.00 0.00 0.00 0.00 0.00 0.00
0.50 0.73 0.73 0.67 0.37 0.37 0.33 0.32 0.29 0.29 0.39 0.47 0.51 0.50 0.50 0.43 0.41 0.39 0.39 0.35 0.44 0.49 0.49 0.54 0.50 0.46 0.46 0.46 0.67 0.67 0.65 0.58 0.52 0.74 0.74 0.77 0.72 0.29 0.29 0.15 0.08 0.04 0.04 0.01 0.00 0.00 0.00 0.00 0.00 0.00 0.00 0.00 0.00 0.00 0.00 0.00 0.00 0.00 0.00 0.00 0.00 0.00 0.00 0.00 0.00 0.00 0.00 0.00 0.00
0.51 0.76 0.76 0.66 0.43 0.43 0.41 0.38 0.40 0.40 0.45 0.56 0.57 0.51 0.51 0.45 0.40 0.36 0.36 0.44 0.48 0.52 0.52 0.56 0.59 0.55 0.55 0.53 0.63 0.63 0.71 0.73 0.84 0.82 0.82 0.78 0.68 0.51 0.51 0.11 0.04 0.01 0.01 0.00 0.00 0.00 0.00 0.00 0.00 0.00 0.00 0.00 0.01 0.00 0.00 0.00 0.00 0.00 0.00 0.00 0.00 0.00 0.00 0.00 0.00 0.00 0.00 0.00 0.00
0.52 0.80 0.80 0.69 0.52 0.52 0.49 0.44 0.49 0.49 0.55 0.59 0.56 0.47 0.47 0.44 0.37 0.37 0.37 0.48 0.51 0.55 0.55 0.59 0.64 0.65 0.65 0.60 0.68 0.68 0.78 0.80 0.81 0.73 0.73 0.67 0.55 0.39 0.39 0.09 0.02 0.00 0.00 0.00 0.00 0.00 0.00 0.00 0.00 0.00 0.00 0.00 0.01 0.00 0.00 0.00 0.00 0.00 0.00 0.00 0.00 0.00 0.00 0.00 0.00 0.00 0.00 0.00 0.00
0.52 0.82 0.82 0.70 0.58 0.58 0.51 0.48 0.55 0.55 0.57 0.57 0.53 0.45 0.45 0.42 0.35 0.38 0.38 0.53 0.53 0.55 0.55 0.59 0.63 0.70 0.70 0.74 0.74 0.74 0.76 0.67 0.60 0.55 0.55 0.46 0.35 0.27 0.27 0.20 0.01 0.00 0.00 0.00 0.00 0.00 0.00 0.00 0.00 0.00 0.00 0.00 0.00 0.00 0.00 0.00 0.00 0.00 0.00 0.00 0.00 0.00 0.00 0.00 0.00 0.00 0.00 0.00 0.00
0.53 0.85 0.85 0.69 0.59 0.59 0.57 0.55 0.53 0.53 0.55 0.54 0.51 0.46 0.46 0.42 0.33 0.36 0.36 0.52 0.49 0.49 0.49 0.55 0.64 0.73 0.73 0.88 0.95 0.95 0.64 0.56 0.42 0.34 0.34 0.25 0.21 0.21 0.21 0.18 0.01 0.00 0.00 0.00 0.00 0.00 0.00 0.00 0.00 0.00 0.00 0.00 0.00 0.00 0.00 0.00 0.00 0.00 0.00 0.00 0.00 0.00 0.00 0.00 0.00 0.00 0.00 0.00 0.00
0.58 0.85 0.85 0.65 0.61 0.61 0.65 0.61 0.56 0.56 0.54 0.54 0.51 0.47 0.47 0.38 0.33 0.35 0.35 0.46 0.46 0.46 0.46 0.53 0.66 0.74 0.74 0.89 0.95 0.95 0.65 0.39 0.29 0.19 0.19 0.16 0.17 0.17 0.17 0.13 0.05 0.00 0.00 0.00 0.00 0.00 0.00 0.00 0.00 0.00 0.00 0.00 0.00 0.00 0.00 0.00 0.00 0.00 0.00 0.00 0.00 0.00 0.00 0.00 0.00 0.00 0.00 0.00 0.00
0.65 0.75 0.75 0.65 0.70 0.70 0.72 0.68 0.60 0.60 0.55 0.52 0.47 0.44 0.44 0.35 0.32 0.33 0.33 0.41 0.41 0.44 0.44 0.52 0.62 0.74 0.74 0.88 0.76 0.76 0.46 0.24 0.22 0.18 0.18 0.14 0.16 0.12 0.12 0.05 0.01 0.00 0.00 0.00 0.00 0.00 0.00 0.00 0.00 0.00 0.00 0.00 0.00 0.00 0.00 0.00 0.00 0.00 0.00 0.00 0.00 0.00 0.00 0.00 0.00 0.00 0.00 0.00 0.00
0.64 0.65 0.65 0.68 0.73 0.73 0.77 0.74 0.60 0.60 0.54 0.49 0.43 0.42 0.42 0.36 0.34 0.34 0.34 0.40 0.40 0.44 0.44 0.53 0.54 0.67 0.67 0.71 0.54 0.54 0.36 0.17 0.17 0.18 0.18 0.13 0.09 0.04 0.04 0.01 0.00 0.00 0.00 0.00 0.00 0.00 0.00 0.00 0.00 0.00 0.00 0.00 0.00 0.00 0.00 0.00 0.00 0.00 0.00 0.00 0.00 0.00 0.00 0.00 0.00 0.00 0.00 0.00 0.00
0.58 0.62 0.62 0.65 0.71 0.71 0.76 0.75 0.58 0.58 0.53 0.48 0.43 0.44 0.44 0.40 0.38 0.38 0.38 0.40 0.41 0.47 0.47 0.45 0.48 0.53 0.53 0.50 0.40 0.40 0.32 0.18 0.11 0.14 0.14 0.09 0.02 0.01 0.01 0.00 0.00 0.00 0.00 0.00 0.00 0.00 0.00 0.00 0.00 0.00 0.00 0.00 0.00 0.00 0.00 0.00 0.00 0.00 0.00 0.00 0.00 0.00 0.00 0.00 0.00 0.00 0.00 0.00 0.00
0.59 0.61 0.61 0.63 0.68 0.68 0.74 0.76 0.54 0.54 0.54 0.51 0.49 0.45 0.45 0.42 0.41 0.45 0.45 0.49 0.58 0.59 0.59 0.50 0.43 0.38 0.38 0.37 0.35 0.35 0.29 0.13 0.05 0.06 0.06 0.03 0.00 0.00 0.00 0.00 0.00 0.00 0.00 0.00 0.00 0.00 0.00 0.00 0.00 0.00 0.00 0.00 0.00 0.00 0.00 0.01 0.00 0.00 0.00 0.00 0.00 0.00 0.00 0.00 0.00 0.00 0.00 0.00 0.00
0.63 0.63 0.63 0.66 0.71 0.71 0.71 0.65 0.55 0.55 0.55 0.50 0.51 0.44 0.44 0.46 0.47 0.47 0.47 0.57 0.66 0.69 0.69 0.54 0.34 0.26 0.26 0.28 0.27 0.27 0.22 0.09 0.02 0.01 0.01 0.00 0.00 0.00 0.00 0.00 0.00 0.00 0.00 0.00 0.00 0.00 0.00 0.00 0.00 0.00 0.00 0.00 0.01 0.00 0.00 0.00 0.00 0.00 0.00 0.00 0.00 0.00 0.00 0.00 0.00 0.00 0.00 0.00 0.00
0.63 0.66 0.66 0.68 0.70 0.70 0.66 0.59 0.53 0.53 0.54 0.54 0.51 0.47 0.47 0.46 0.47 0.53 0.53 0.69 0.72 0.59 0.59 0.42 0.24 0.17 0.17 0.15 0.15 0.15 0.13 0.05 0.00 0.00 0.00 0.00 0.00 0.00 0.00 0.00 0.00 0.00 0.00 0.01 0.00 0.00 0.00 0.01 0.02 0.02 0.02 0.01 0.01 0.00 0.00 0.00 0.00 0.00 0.00 0.00 0.00 0.00 0.00 0.00 0.00 0.00 0.00 0.00 0.00
0.63 0.68 0.68 0.67 0.64 0.64 0.57 0.52 0.53 0.53 0.56 0.58 0.58 0.48 0.48 0.44 0.45 0.57 0.57 0.72 0.73 0.46 0.46 0.27 0.15 0.09 0.09 0.06 0.04 0.04 0.04 0.01 0.00 0.00 0.00 0.00 0.00 0.00 0.00 0.00 0.00 0.00 0.00 0.02 0.03 0.03 0.03 0.04 0.03 0.03 0.00 0.00 0.00 0.00 0.00 0.00 0.00 0.00 0.00 0.00 0.00 0.00 0.00 0.00 0.00 0.00 0.00 0.00 0.00
0.58 0.65 0.65 0.65 0.58 0.58 0.50 0.48 0.52 0.52 0.55 0.58 0.56 0.48 0.48 0.47 0.47 0.58 0.58 0.67 0.60 0.29 0.29 0.16 0.08 0.03 0.03 0.01 0.00 0.00 0.00 0.00 0.00 0.00 0.00 0.00 0.00 0.00 0.00 0.00 0.00 0.00 0.00 0.03 0.03 0.03 0.03 0.03 0.02 0.02 0.00 0.00 0.00 0.00 0.00 0.00 0.00 0.00 0.00 0.00 0.00 0.00 0.00 0.00 0.00 0.00 0.00 0.00 0.00
0.54 0.60 0.60 0.60 0.54 0.54 0.47 0.46 0.52 0.52 0.56 0.56 0.50 0.47 0.47 0.50 0.54 0.59 0.59 0.56 0.41 0.18 0.18 0.09 0.02 0.00 0.00 0.00 0.00 0.00 0.00 0.00 0.00 0.00 0.00 0.00 0.01 0.01 0.01 0.02 0.03 0.05 0.05 0.05 0.04 0.04 0.03 0.01 0.00 0.00 0.00 0.00 0.00 0.00 0.00 0.00 0.00 0.00 0.00 0.00 0.00 0.00 0.00 0.00 0.00 0.00 0.00 0.00 0.00
0.55 0.56 0.56 0.54 0.49 0.49 0.47 0.46 0.51 0.51 0.58 0.51 0.46 0.45 0.45 0.53 0.57 0.59 0.59 0.39 0.21 0.13 0.13 0.03 0.00 0.00 0.00 0.00 0.00 0.00 0.00 0.00 0.00 0.01 0.01 0.01 0.01 0.04 0.04 0.06 0.06 0.04 0.04 0.03 0.02 0.02 0.01 0.00 0.00 0.00 0.00 0.00 0.00 0.00 0.00 0.00 0.00 0.00 0.00 0.00 0.00 0.00 0.00 0.00 0.00 0.00 0.00 0.00 0.00
0.56 0.54 0.54 0.47 0.43 0.43 0.44 0.41 0.46 0.46 0.51 0.48 0.46 0.51 0.51 0.53 0.53 0.39 0.39 0.20 0.10 0.05 0.05 0.00 0.00 0.00 0.00 0.00 0.00 0.00 0.00 0.00 0.01 0.03 0.03 0.04 0.05 0.06 0.06 0.06 0.03 0.01 0.01 0.01 0.00 0.00 0.00 0.00 0.00 0.00 0.00 0.00 0.00 0.00 0.00 0.00 0.00 0.00 0.00 0.00 0.00 0.00 0.00 0.00 0.00 0.00 0.00 0.00 0.00
0.53 0.49 0.49 0.43 0.39 0.39 0.36 0.37 0.43 0.43 0.47 0.46 0.55 0.59 0.59 0.47 0.28 0.15 0.15 0.06 0.02 0.01 0.01 0.00 0.00 0.00 0.00 0.00 0.00 0.00 0.00 0.01 0.03 0.07 0.07 0.08 0.07 0.06 0.06 0.02 0.01 0.00 0.00 0.00 0.00 0.00 0.00 0.00 0.00 0.00 0.00 0.00 0.00 0.00 0.00 0.00 0.00 0.00 0.00 0.00 0.00 0.00 0.00 0.00 0.00 0.00 0.00 0.00 0.00
0.49 0.45 0.45 0.39 0.37 0.37 0.31 0.35 0.44 0.44 0.47 0.54 0.63 0.47 0.47 0.21 0.08 0.03 0.03 0.00 0.00 0.00 0.00 0.00 0.00 0.00 0.00 0.00 0.00 0.00 0.00 0.01 0.04 0.06 0.06 0.05 0.04 0.02 0.02 0.00 0.00 0.00 0.00 0.00 0.00 0.00 0.00 0.00 0.00 0.00 0.00 0.00 0.00 0.00 0.00 0.00 0.00 0.00 0.00 0.00 0.00 0.00 0.00 0.00 0.00 0.00 0.00 0.00 0.00
0.42 0.45 0.45 0.43 0.38 0.38 0.34 0.43 0.54 0.54 0.59 0.61 0.41 0.17 0.17 0.04 0.01 0.00 0.00 0.00 0.00 0.00 0.00 0.00 0.00 0.00 0.00 0.00 0.00 0.00 0.01 0.01 0.01 0.01 0.01 0.01 0.01 0.00 0.00 0.00 0.00 0.00 0.00 0.00 0.00 0.00 0.00 0.00 0.00 0.00 0.00 0.00 0.00 0.00 0.00 0.00 0.00 0.00 0.00 0.00 0.00 0.00 0.00 0.00 0.00 0.00 0.00 0.00 0.00